Location: Carthage
(33.8834°N, 106.6595°W)
Time: 03:21:38
(UTC+00:00)

Cosmos 2322 Rocket - Pass Details

Date: 26 May 2026
Orbit: 831 x 850 km, 71.0° (Epoch: 9 June)

Event Time Altitude Azimuth Distance (km) Brightness Sun altitude
Rises 04:18:06 0° 319° (NW) 3,410 6.9 -22.3°
Reaches altitude 10° 04:21:19 10° 301° (WNW) 2,473 5.6 -22.8°
Maximum altitude 04:24:58 18° 261° (W) 1,978 4.4 -23.3°
Drops below altitude 10° 04:28:38 10° 220° (SW) 2,467 4.5 -23.8°
Enters shadow 04:29:23 - 214° (SW) 2,663 4.6 -23.9°
